| time (UTC) | temp F | wind direction | speed MPH | gust MPH | rain 1hr in | rain 24hr in | rain mn in | humidity % | barometer mb |
| 20260504160239 | 77 | 265 | 5.0 | 7.0 | 0.00 | 0.00 | 0.00 | 43 | 1012.0 |
| 20260504150704 | 73 | 167 | 4.0 | 4.0 | 0.00 | 0.00 | 0.00 | 52 | 1012.7 |
| 20260504150201 | 73 | 200 | 4.0 | 6.0 | 0.00 | 0.00 | 0.00 | 51 | 1012.8 |
| 20260504141130 | 69 | 20 | 1.0 | 1.0 | 0.00 | 0.00 | 0.00 | 60 | 1012.5 |
| 20260504140627 | 68 | 282 | 4.0 | 4.0 | 0.00 | 0.00 | 0.00 | 59 | 1012.7 |
| 20260504140122 | 68 | 44 | 1.0 | 2.0 | 0.00 | 0.00 | 0.00 | 61 | 1012.7 |
| 20260504130551 | 64 | 55 | 0.0 | 0.0 | 0.00 | 0.00 | 0.00 | 65 | 1012.7 |
| 20260504110438 | 59 | 40 | 2.0 | 2.0 | 0.00 | 0.00 | 0.00 | 69 | 1012.0 |
| 20260504100401 | 59 | 57 | 1.0 | 1.0 | 0.00 | 0.00 | 0.00 | 67 | 1011.9 |
| 20260504081754 | 60 | 51 | 0.0 | 0.0 | 0.00 | 0.00 | 0.00 | 62 | 1012.3 |
| 20260504081251 | 60 | 105 | 2.0 | 2.0 | 0.00 | 0.00 | 0.00 | 62 | 1012.3 |
| 20260504080747 | 60 | 59 | 0.0 | 1.0 | 0.00 | 0.00 | 0.00 | 61 | 1012.3 |
| 20260504080243 | 60 | 208 | 2.0 | 3.0 | 0.00 | 0.00 | 0.00 | 61 | 1012.3 |
| 20260504070211 | 59 | 47 | 0.0 | 0.0 | 0.00 | 0.00 | 0.00 | 62 | 1012.9 |
| 20260504060132 | 58 | 65 | 1.0 | 1.0 | 0.00 | 0.00 | 0.00 | 61 | 1013.7 |
| 20260504050600 | 59 | 48 | 0.0 | 0.0 | 0.00 | 0.00 | 0.00 | 57 | 1013.8 |
| 20260504045554 | 59 | 67 | 0.0 | 1.0 | 0.00 | 0.00 | 0.00 | 57 | 1013.7 |
| 20260504045049 | 59 | 55 | 0.0 | 0.0 | 0.00 | 0.00 | 0.00 | 56 | 1013.9 |
| 20260504044547 | 59 | 50 | 0.0 | 0.0 | 0.00 | 0.00 | 0.00 | 56 | 1013.8 |
| 20260504044043 | 59 | 58 | 1.0 | 1.0 | 0.00 | 0.00 | 0.00 | 56 | 1013.8 |
| 20260504043540 | 59 | 63 | 1.0 | 1.0 | 0.00 | 0.00 | 0.00 | 56 | 1013.9 |
| 20260504043038 | 59 | 51 | 0.0 | 0.0 | 0.00 | 0.00 | 0.00 | 56 | 1013.9 |
| 20260504042535 | 59 | 56 | 0.0 | 0.0 | 0.00 | 0.00 | 0.00 | 56 | 1014.1 |
| 20260504042032 | 59 | 14 | 1.0 | 1.0 | 0.00 | 0.00 | 0.00 | 55 | 1013.9 |
| 20260504041527 | 59 | 59 | 0.0 | 1.0 | 0.00 | 0.00 | 0.00 | 56 | 1014.0 |
| 20260504041023 | 59 | 52 | 1.0 | 1.0 | 0.00 | 0.00 | 0.00 | 56 | 1014.0 |
| 20260504040521 | 59 | 49 | 1.0 | 1.0 | 0.00 | 0.00 | 0.00 | 56 | 1014.3 |
| 20260504040018 | 59 | 57 | 0.0 | 0.0 | 0.00 | 0.00 | 0.00 | 56 | 1014.1 |
| 20260504035515 | 59 | 51 | 1.0 | 1.0 | 0.00 | 0.00 | 0.00 | 55 | 1014.4 |
| 20260504035011 | 59 | 75 | 0.0 | 1.0 | 0.00 | 0.00 | 0.00 | 56 | 1014.2 |
| 20260504034509 | 58 | 69 | 0.0 | 0.0 | 0.00 | 0.00 | 0.00 | 55 | 1014.2 |
| 20260504034006 | 58 | 56 | 0.0 | 0.0 | 0.00 | 0.00 | 0.00 | 55 | 1014.2 |
| 20260504033504 | 58 | 62 | 0.0 | 0.0 | 0.00 | 0.00 | 0.00 | 56 | 1014.2 |
| 20260504033001 | 58 | 54 | 0.0 | 0.0 | 0.00 | 0.00 | 0.00 | 56 | 1014.2 |
| 20260504032457 | 58 | 61 | 0.0 | 0.0 | 0.00 | 0.00 | 0.00 | 55 | 1014.4 |
| 20260504031954 | 58 | 56 | 0.0 | 0.0 | 0.00 | 0.00 | 0.00 | 56 | 1014.4 |
| 20260504031451 | 58 | 64 | 0.0 | 0.0 | 0.00 | 0.00 | 0.00 | 57 | 1014.3 |
| 20260504030947 | 58 | 37 | 1.0 | 1.0 | 0.00 | 0.00 | 0.00 | 57 | 1014.2 |
| 20260504030445 | 58 | 67 | 0.0 | 0.0 | 0.00 | 0.00 | 0.00 | 57 | 1014.6 |
| 20260504025940 | 57 | 63 | 0.0 | 0.0 | 0.00 | 0.00 | 0.00 | 58 | 1014.3 |
| 20260504025437 | 57 | 68 | 0.0 | 0.0 | 0.00 | 0.00 | 0.00 | 57 | 1014.3 |
| 20260504024935 | 58 | 69 | 0.0 | 0.0 | 0.00 | 0.00 | 0.00 | 56 | 1014.3 |
| 20260504024432 | 58 | 66 | 0.0 | 0.0 | 0.00 | 0.00 | 0.00 | 57 | 1014.3 |
| 20260504023929 | 58 | 67 | 0.0 | 0.0 | 0.00 | 0.00 | 0.00 | 56 | 1014.4 |
| 20260504023425 | 58 | 67 | 0.0 | 0.0 | 0.00 | 0.00 | 0.00 | 56 | 1014.4 |
| 20260504022921 | 58 | 67 | 0.0 | 0.0 | 0.00 | 0.00 | 0.00 | 56 | 1014.5 |
| 20260504022417 | 58 | 67 | 0.0 | 0.0 | 0.00 | 0.00 | 0.00 | 56 | 1014.5 |
| 20260504021914 | 58 | 67 | 0.0 | 0.0 | 0.00 | 0.00 | 0.00 | 55 | 1014.3 |
| 20260504021411 | 59 | 67 | 0.0 | 0.0 | 0.00 | 0.00 | 0.00 | 54 | 1014.4 |
| 20260504020909 | 59 | 67 | 0.0 | 0.0 | 0.00 | 0.00 | 0.00 | 54 | 1014.3 |
| 20260504020405 | 59 | 67 | 0.0 | 0.0 | 0.00 | 0.00 | 0.00 | 54 | 1014.3 |
| 20260504015901 | 59 | 66 | 0.0 | 0.0 | 0.00 | 0.00 | 0.00 | 53 | 1014.2 |
| 20260504015357 | 60 | 66 | 0.0 | 0.0 | 0.00 | 0.00 | 0.00 | 51 | 1014.1 |
| 20260504014853 | 60 | 64 | 0.0 | 0.0 | 0.00 | 0.00 | 0.00 | 51 | 1014.1 |
| 20260504014349 | 60 | 64 | 0.0 | 0.0 | 0.00 | 0.00 | 0.00 | 50 | 1014.1 |
| 20260504013847 | 60 | 64 | 0.0 | 0.0 | 0.00 | 0.00 | 0.00 | 50 | 1014.0 |
| 20260504013345 | 61 | 64 | 0.0 | 0.0 | 0.00 | 0.00 | 0.00 | 49 | 1013.9 |
| 20260504012841 | 61 | 57 | 0.0 | 0.0 | 0.00 | 0.00 | 0.00 | 49 | 1014.0 |
| 20260504012339 | 61 | 55 | 0.0 | 0.0 | 0.00 | 0.00 | 0.00 | 48 | 1013.8 |
| 20260504011837 | 62 | 59 | 0.0 | 0.0 | 0.00 | 0.00 | 0.00 | 48 | 1013.8 |
| 20260504011333 | 62 | 53 | 0.0 | 0.0 | 0.00 | 0.00 | 0.00 | 47 | 1014.0 |
| 20260504010829 | 63 | 69 | 0.0 | 0.0 | 0.00 | 0.00 | 0.00 | 45 | 1014.1 |
| 20260504010325 | 64 | 70 | 0.0 | 0.0 | 0.00 | 0.00 | 0.00 | 44 | 1014.1 |
| 20260504005821 | 64 | 51 | 0.0 | 0.0 | 0.00 | 0.00 | 0.00 | 43 | 1014.0 |
| 20260504005319 | 65 | 51 | 0.0 | 0.0 | 0.00 | 0.00 | 0.00 | 42 | 1013.8 |
| 20260504004816 | 65 | 44 | 1.0 | 1.0 | 0.00 | 0.00 | 0.00 | 41 | 1014.0 |
| 20260504004314 | 66 | 52 | 0.0 | 0.0 | 0.00 | 0.00 | 0.00 | 41 | 1014.0 |
| 20260504003810 | 66 | 104 | 1.0 | 1.0 | 0.00 | 0.00 | 0.00 | 40 | 1014.0 |
| 20260504003307 | 66 | 52 | 0.0 | 0.0 | 0.00 | 0.00 | 0.00 | 40 | 1014.1 |
| 20260504002803 | 67 | 67 | 0.0 | 1.0 | 0.00 | 0.00 | 0.00 | 38 | 1013.9 |
| 20260504002300 | 67 | 43 | 0.0 | 1.0 | 0.00 | 0.00 | 0.00 | 38 | 1014.1 |
| 20260504001758 | 68 | 354 | 2.0 | 2.0 | 0.00 | 0.00 | 0.00 | 37 | 1014.2 |
| 20260504001255 | 68 | 20 | 2.0 | 3.0 | 0.00 | 0.00 | 0.00 | 37 | 1014.1 |
| 20260504000752 | 68 | 59 | 0.0 | 0.0 | 0.00 | 0.00 | 0.00 | 37 | 1014.2 |
| 20260504000248 | 68 | 49 | 0.0 | 1.0 | 0.00 | 0.00 | 0.00 | 37 | 1014.3 |
| 20260503235747 | 69 | 9 | 1.0 | 2.0 | 0.00 | 0.00 | 0.00 | 35 | 1014.4 |
| 20260503235243 | 69 | 9 | 2.0 | 2.0 | 0.00 | 0.00 | 0.00 | 34 | 1014.3 |
| 20260503234741 | 69 | 39 | 1.0 | 2.0 | 0.00 | 0.00 | 0.00 | 34 | 1014.4 |
| 20260503234239 | 69 | 340 | 1.0 | 2.0 | 0.00 | 0.00 | 0.00 | 34 | 1014.5 |
| 20260503233730 | 70 | 343 | 2.0 | 2.0 | 0.00 | 0.00 | 0.00 | 34 | 1014.5 |
| 20260503233226 | 70 | 328 | 2.0 | 3.0 | 0.00 | 0.00 | 0.00 | 33 | 1014.6 |
| 20260503232723 | 70 | 358 | 1.0 | 2.0 | 0.00 | 0.00 | 0.00 | 33 | 1014.6 |
| 20260503232220 | 70 | 43 | 2.0 | 2.0 | 0.00 | 0.00 | 0.00 | 33 | 1014.6 |
| 20260503231719 | 70 | 297 | 2.0 | 3.0 | 0.00 | 0.00 | 0.00 | 32 | 1014.8 |
| 20260503231215 | 70 | 300 | 6.0 | 7.0 | 0.00 | 0.00 | 0.00 | 31 | 1014.8 |
| 20260503230711 | 70 | 12 | 2.0 | 3.0 | 0.00 | 0.00 | 0.00 | 33 | 1014.9 |
| 20260503230209 | 71 | 353 | 3.0 | 4.0 | 0.00 | 0.00 | 0.00 | 32 | 1015.1 |
| 20260503225706 | 71 | 172 | 3.0 | 6.0 | 0.00 | 0.00 | 0.00 | 33 | 1015.0 |
| 20260503225205 | 71 | 327 | 2.0 | 2.0 | 0.00 | 0.00 | 0.00 | 34 | 1015.3 |
| 20260503224703 | 71 | 320 | 3.0 | 6.0 | 0.00 | 0.00 | 0.00 | 33 | 1015.1 |
| 20260503224200 | 71 | 234 | 3.0 | 4.0 | 0.00 | 0.00 | 0.00 | 33 | 1015.3 |
| 20260503223658 | 71 | 296 | 2.0 | 4.0 | 0.00 | 0.00 | 0.00 | 34 | 1015.0 |
| 20260503223155 | 71 | 242 | 3.0 | 3.0 | 0.00 | 0.00 | 0.00 | 33 | 1015.2 |
| 20260503222652 | 71 | 55 | 3.0 | 4.0 | 0.00 | 0.00 | 0.00 | 33 | 1015.0 |
| 20260503222149 | 71 | 152 | 5.0 | 8.0 | 0.00 | 0.00 | 0.00 | 33 | 1015.1 |
| 20260503221648 | 71 | 155 | 2.0 | 3.0 | 0.00 | 0.00 | 0.00 | 33 | 1015.2 |
| 20260503221145 | 71 | 354 | 2.0 | 2.0 | 0.00 | 0.00 | 0.00 | 34 | 1015.1 |
| 20260503220642 | 72 | 324 | 2.0 | 3.0 | 0.00 | 0.00 | 0.00 | 35 | 1015.2 |
| 20260503220138 | 71 | 84 | 1.0 | 1.0 | 0.00 | 0.00 | 0.00 | 34 | 1015.3 |
| 20260503215635 | 71 | 241 | 6.0 | 7.0 | 0.00 | 0.00 | 0.00 | 33 | 1015.5 |
| 20260503215131 | 72 | 296 | 5.0 | 9.0 | 0.00 | 0.00 | 0.00 | 33 | 1015.5 |
| 20260503214631 | 72 | 286 | 4.0 | 4.0 | 0.00 | 0.00 | 0.00 | 32 | 1015.7 |
| 20260503214126 | 72 | 347 | 5.0 | 7.0 | 0.00 | 0.00 | 0.00 | 31 | 1015.8 |
| 20260503213626 | 71 | 350 | 4.0 | 4.0 | 0.00 | 0.00 | 0.00 | 33 | 1015.8 |
| 20260503213122 | 72 | 177 | 4.0 | 4.0 | 0.00 | 0.00 | 0.00 | 33 | 1015.8 |
| 20260503212619 | 72 | 276 | 7.0 | 10.0 | 0.00 | 0.00 | 0.00 | 32 | 1016.3 |
| 20260503212117 | 73 | 249 | 4.0 | 6.0 | 0.00 | 0.00 | 0.00 | 33 | 1016.0 |
| 20260503211614 | 73 | 182 | 1.0 | 2.0 | 0.00 | 0.00 | 0.00 | 35 | 1016.3 |
| 20260503211109 | 73 | 18 | 3.0 | 4.0 | 0.00 | 0.00 | 0.00 | 32 | 1016.5 |
| 20260503210606 | 73 | 232 | 2.0 | 4.0 | 0.00 | 0.00 | 0.00 | 34 | 1016.5 |
| 20260503205559 | 72 | 317 | 4.0 | 6.0 | 0.00 | 0.00 | 0.00 | 33 | 1016.7 |
| 20260503205055 | 72 | 237 | 2.0 | 3.0 | 0.00 | 0.00 | 0.00 | 34 | 1016.6 |
| 20260503204552 | 72 | 319 | 2.0 | 2.0 | 0.00 | 0.00 | 0.00 | 34 | 1017.0 |
| 20260503204049 | 72 | 292 | 7.0 | 10.0 | 0.00 | 0.00 | 0.00 | 32 | 1017.1 |
| 20260503203546 | 72 | 272 | 5.0 | 6.0 | 0.00 | 0.00 | 0.00 | 33 | 1017.0 |
| 20260503203043 | 72 | 260 | 2.0 | 7.0 | 0.00 | 0.00 | 0.00 | 35 | 1017.2 |
| 20260503202541 | 72 | 64 | 1.0 | 2.0 | 0.00 | 0.00 | 0.00 | 32 | 1017.4 |
| 20260503202039 | 71 | 249 | 2.0 | 2.0 | 0.00 | 0.00 | 0.00 | 39 | 1017.4 |
| 20260503201537 | 71 | 213 | 5.0 | 6.0 | 0.00 | 0.00 | 0.00 | 33 | 1017.6 |
| 20260503201034 | 71 | 345 | 2.0 | 3.0 | 0.00 | 0.00 | 0.00 | 35 | 1017.6 |
| 20260503200530 | 72 | 317 | 5.0 | 8.0 | 0.00 | 0.00 | 0.00 | 32 | 1017.8 |
| 20260503200027 | 71 | 1 | 2.0 | 2.0 | 0.00 | 0.00 | 0.00 | 35 | 1018.2 |
| 20260503195524 | 70 | 194 | 4.0 | 8.0 | 0.00 | 0.00 | 0.00 | 34 | 1018.1 |
| 20260503195021 | 70 | 228 | 8.0 | 8.0 | 0.00 | 0.00 | 0.00 | 32 | 1018.3 |
| 20260503194518 | 70 | 261 | 5.0 | 7.0 | 0.00 | 0.00 | 0.00 | 33 | 1018.3 |
| 20260503194017 | 71 | 272 | 5.0 | 7.0 | 0.00 | 0.00 | 0.00 | 38 | 1018.7 |
| 20260503193514 | 71 | 309 | 4.0 | 4.0 | 0.00 | 0.00 | 0.00 | 33 | 1018.7 |
| 20260503193010 | 70 | 218 | 3.0 | 3.0 | 0.00 | 0.00 | 0.00 | 36 | 1018.7 |
| 20260503192506 | 70 | 265 | 6.0 | 8.0 | 0.00 | 0.00 | 0.00 | 35 | 1018.8 |
| 20260503192001 | 70 | 249 | 3.0 | 3.0 | 0.00 | 0.00 | 0.00 | 39 | 1019.0 |
| 20260503191459 | 70 | 357 | 1.0 | 2.0 | 0.00 | 0.00 | 0.00 | 40 | 1019.1 |
| 20260503190955 | 69 | 208 | 6.0 | 7.0 | 0.00 | 0.00 | 0.00 | 37 | 1019.1 |
| 20260503190453 | 69 | 308 | 5.0 | 7.0 | 0.00 | 0.00 | 0.00 | 36 | 1019.1 |
| 20260503185950 | 69 | 43 | 1.0 | 1.0 | 0.00 | 0.00 | 0.00 | 36 | 1019.1 |
| 20260503185446 | 69 | 278 | 6.0 | 7.0 | 0.00 | 0.00 | 0.00 | 35 | 1019.5 |
| 20260503184946 | 69 | 280 | 3.0 | 3.0 | 0.00 | 0.00 | 0.00 | 35 | 1019.3 |
| 20260503184442 | 69 | 355 | 2.0 | 2.0 | 0.00 | 0.00 | 0.00 | 35 | 1019.5 |
| 20260503183939 | 69 | 306 | 5.0 | 6.0 | 0.00 | 0.00 | 0.00 | 35 | 1019.4 |
| 20260503183435 | 69 | 247 | 3.0 | 4.0 | 0.00 | 0.00 | 0.00 | 37 | 1019.6 |
| 20260503182932 | 69 | 291 | 1.0 | 2.0 | 0.00 | 0.00 | 0.00 | 40 | 1019.7 |
| 20260503182431 | 68 | 198 | 2.0 | 3.0 | 0.00 | 0.00 | 0.00 | 38 | 1019.7 |
| 20260503181928 | 68 | 296 | 4.0 | 7.0 | 0.00 | 0.00 | 0.00 | 34 | 1019.7 |
| 20260503181425 | 68 | 73 | 3.0 | 4.0 | 0.00 | 0.00 | 0.00 | 37 | 1019.8 |
| 20260503180921 | 67 | 281 | 3.0 | 3.0 | 0.00 | 0.00 | 0.00 | 36 | 1019.8 |
| 20260503180420 | 68 | 302 | 6.0 | 10.0 | 0.00 | 0.00 | 0.00 | 38 | 1020.0 |
| 20260503175917 | 67 | 237 | 3.0 | 3.0 | 0.00 | 0.00 | 0.00 | 40 | 1020.1 |
| 20260503175415 | 67 | 232 | 7.0 | 10.0 | 0.00 | 0.00 | 0.00 | 38 | 1020.3 |
| 20260503174910 | 68 | 224 | 4.0 | 6.0 | 0.00 | 0.00 | 0.00 | 37 | 1020.2 |
| 20260503174409 | 67 | 347 | 4.0 | 7.0 | 0.00 | 0.00 | 0.00 | 39 | 1020.3 |
| 20260503173908 | 67 | 215 | 2.0 | 2.0 | 0.00 | 0.00 | 0.00 | 43 | 1020.4 |
| 20260503173405 | 67 | 197 | 3.0 | 3.0 | 0.00 | 0.00 | 0.00 | 42 | 1020.4 |
| 20260503172902 | 67 | 30 | 1.0 | 2.0 | 0.00 | 0.00 | 0.00 | 38 | 1020.4 |
| 20260503172359 | 67 | 311 | 3.0 | 3.0 | 0.00 | 0.00 | 0.00 | 41 | 1020.6 |
| 20260503171855 | 67 | 71 | 2.0 | 2.0 | 0.00 | 0.00 | 0.00 | 38 | 1020.6 |
| 20260503171352 | 66 | 49 | 1.0 | 2.0 | 0.00 | 0.00 | 0.00 | 39 | 1020.8 |
| 20260503170850 | 65 | 242 | 5.0 | 6.0 | 0.00 | 0.00 | 0.00 | 41 | 1020.8 |
| 20260503170346 | 66 | 216 | 3.0 | 3.0 | 0.00 | 0.00 | 0.00 | 40 | 1020.9 |